This demonstration page uses our WeatherBlox Daily Observations layout. Learn more.

Left ArrowRight Arrow

36.17497, -115.13722

Hourly Observations for July 4, 2017

Temp ( °F °C ) Dew Point ( °F °C ) Humidity (%) Winds ( mph kmh ) Pressure ( in mb ) Visibility ( mi km ) Precip ( " mm )
12:53 am 00:53 Clear 84 28.9 19 -7.2 9 9 WNW 5 7 29.87 1011 10 16 N/A
1:53 am 01:53 Clear 81 27.2 25 -3.9 13 13 N N/A 29.87 1012 10 16 N/A
2:53 am 02:53 Clear 80 26.7 26 -3.3 14 14 N N/A 29.87 1012 10 16 N/A
3:53 am 03:53 Clear 80 26.7 21 -6.1 11 11 NNW 5 7 29.88 1012 10 16 N/A
4:53 am 04:53 Clear 77 25 29 -1.7 17 17 N N/A 29.90 1013 10 16 N/A
5:53 am 05:53 Sunny 75 23.9 26 -3.3 16 16 NNW 5 7 29.91 1013 10 16 N/A
6:53 am 06:53 Sunny 79 26.1 25 -3.9 14 14 NW 3 6 29.93 1014 10 16 N/A
7:53 am 07:53 Sunny 85 29.4 23 -5 10 10 N 3 6 29.95 1014 10 16 N/A
8:53 am 08:53 Sunny 88 31.1 13 -10.6 6 6 N N/A 29.96 1015 10 16 N/A
9:53 am 09:53 Sunny 92 33.3 11 -11.7 5 5 E 5 7 29.95 1014 10 16 N/A
10:53 am 10:53 Sunny 94 34.4 19 -7.2 6 6 SSE 5 7 29.94 1014 10 16 N/A
11:53 am 11:53 Sunny 98 36.7 17 -8.3 5 5 ESE 5 7 29.93 1014 10 16 N/A
12:53 pm 12:53 Sunny 101 38.3 17 -8.3 5 5 ESE 8 13 29.91 1013 10 16 N/A
1:53 pm 13:53 Sunny 103 39.4 14 -10 4 4 S 8 13 29.88 1012 10 16 N/A
2:53 pm 14:53 Sunny 105 40.6 11 -11.7 3 3 E 8 13 29.86 1011 10 16 N/A
3:53 pm 15:53 Sunny 106 41.1 9 -12.8 3 3 S 6 9 29.83 1010 10 16 N/A
4:53 pm 16:53 Sunny 107 41.7 9 -12.8 3 3 ESE 7 11 29.80 1009 10 16 N/A
5:53 pm 17:53 Sunny 106 41.1 10 -12.2 3 3 VRB 5 7 29.79 1009 10 16 N/A
6:53 pm 18:53 Sunny 105 40.6 5 -15 2 2 SW 7 11 29.79 1009 10 16 N/A
7:53 pm 19:53 Sunny 103 39.4 7 -13.9 3 3 WSW 7 11 29.79 1009 10 16 N/A
8:53 pm 20:53 Clear 101 38.3 8 -13.3 3 3 SW 8 13 29.80 1009 10 16 N/A
9:53 pm 21:53 Clear 97 36.1 15 -9.4 5 5 SW 7 11 29.82 1010 7 11 N/A
10:53 pm 22:53 Hazy 93 33.9 20 -6.7 7 7 N 5 7 29.83 1010 6 10 N/A
11:53 pm 23:53 Clear 91 32.8 19 -7.2 7 7 N N/A 29.83 1010 10 16 N/A

Powered by AerisWeather